Voltar ao catálogo

SL-16 DEB

AtivoLEO
NORAD 23408·DEBRIS·🇷🇺 Russia

Lançado Nov 24, 1994 de Baikonur Cosmodrome

Loading…

Próximas Passagens (próximas 24 horas)

TLE

AtualizadoSource: Space-Track

Época: Sep 14, 2026, 17:51 UTC

1 23408U 94077E   26257.74424390  .00000037  00000-0  76125-4 0  9994
2 23408  70.9827 262.6147 0215492 265.2076 271.7203 13.71357225590991

Acompanhe SL-16 DEB em tempo real com AllMySat

Download on the App Store